Location: Brunsen
(51.8651°N, 9.8610°E)
Time: 20:44:59
(UTC+00:00)

CZ-2C R/B - Pass Details

Date: 15 August 2024
Orbit: 782 x 869 km, 98.3° (Epoch: 07 September)

Event Time Altitude Azimuth Distance (km) Brightness Sun altitude
Exits shadow 00:55:02 31° 156° (SSE) 1,434 3.5 -21.4°
Maximum altitude 00:57:44 81° 73° (ENE) 854 2.7 -21.2°
Drops below altitude 10° 01:03:09 10° 347° (NNW) 2,433 5.8 -20.8°
Sets 01:05:29 0° 346° (NNW) 3,357 6.6 -20.7°
